Temperature
6 6 6 6 6 5 5 5 5 4 4 5 5 5 5 5 5 5 5 5 5 5 5 5 5 5 5 5 5 5 5 5 5 4 4 4 5 4
6 6 5 5 5 5 5 5 5 5 4 4 4 5 5 5 5 5 5 5 5 5 5 5 5 5 5 5 4 4 4 4 4 4 4 4 4 4
5 5 5 5 5 5 5 5 5 5 4 4 4 4 4 4 4 5 5 4 5 5 5 4 4 4 4 4 4 4 4 4 4 4 4 4 4 4
5 5 5 5 5 5 5 5 5 4 4 4 4 4 4 4 4 4 4 4 4 4 4 4 4 4 4 4 4 3 3 3 3 3 3 3 3 3
5 5 5 5 4 5 4 4 4 4 4 4 4 4 4 4 4 4 4 4 4 4 4 3 3 3 3 3 3 3 3 3 3 3 3 3 3 3
5 5 4 4 4 4 4 4 4 4 4 3 3 3 3 3 3 3 3 4 3 3 3 3 3 3 3 3 3 3 3 2 2 2 3 3 3 3
5 4 4 4 4 4 4 4 4 4 3 3 3 3 3 3 3 3 3 3 3 3 3 3 2 2 2 2 2 2 2 2 2 2 2 2 2 2
4 4 4 4 4 4 4 4 3 3 3 3 3 3 3 3 3 2 2 2 2 2 2 2 2 2 2 2 2 1 2 2 2 1 2 2 2 2
4 4 4 4 4 3 3 3 3 3 3 3 2 2 2 2 2 2 2 2 2 2 1 2 2 2 1 1 1 1 1 1 1 1 1 1 2 2
4 3 3 3 3 3 3 3 3 3 2 2 2 2 2 2 2 2 2 2 2 1 1 1 1 1 1 1 0 0 1 1 1 1 1 1 1 1
3 3 3 3 3 3 3 3 2 2 2 2 2 2 2 2 1 1 1 1 1 1 1 0 0 0 0 0 0 0 0 0 0 0 0 0 1 1
3 3 3 2 2 2 2 2 2 2 2 2 2 2 1 1 1 1 1 1 0 -0 -0 -0 -0 -0 -0 -0 -0 -0 -0 -0 0 0 0 -0 -0 0
2 2 2 2 2 2 2 2 2 2 1 1 1 1 1 1 1 1 0 0 -0 -0 -1 -1 -1 -1 -1 -1 -1 -1 -0 -0 -0 -0 -0 -0 -0 -0
2 2 2 2 2 2 1 1 1 1 1 1 1 1 1 1 1 0 0 -0 -1 -1 -1 -1 -1 -1 -1 -2 -1 -1 -1 -1 -1 -1 -1 -0 -0 -0
2 2 1 1 1 1 1 1 1 1 1 1 1 0 0 0 0 0 -0 -0 -1 -1 -1 -1 -1 -2 -2 -2 -2 -2 -1 -1 -1 -1 -1 -1 -1 -1
1 1 1 1 1 1 0 0 0 0 0 0 0 -0 -0 -0 -0 -0 -1 -1 -1 -1 -1 -2 -2 -2 -2 -2 -2 -2 -2 -2 -2 -2 -1 -1 -1 -1
1 1 1 1 1 0 0 0 -0 -0 -0 -0 -0 -0 -0 -1 -1 -1 -1 -1 -1 -1 -1 -2 -2 -2 -2 -2 -2 -2 -3 -2 -2 -2 -2 -1 -1 -1
1 1 0 0 0 -0 -0 -0 -0 -0 -1 -1 -1 -1 -1 -1 -1 -1 -2 -2 -2 -2 -2 -2 -2 -2 -2 -3 -3 -3 -3 -3 -3 -2 -2 -2 -1 -1
0 0 -0 -0 -1 -1 -1 -1 -1 -1 -1 -1 -1 -1 -1 -2 -2 -2 -2 -2 -2 -2 -2 -2 -2 -3 -3 -3 -3 -3 -3 -3 -3 -3 -3 -3 -2 -2
-0 -1 -1 -1 -1 -1 -1 -1 -1 -1 -1 -1 -1 -2 -2 -2 -2 -2 -3 -3 -3 -3 -3 -3 -3 -3 -4 -4 -4 -3 -3 -3 -3 -3 -3 -2 -2 -2
-1 -1 -1 -1 -1 -1 -1 -1 -1 -2 -2 -2 -2 -2 -2 -2 -2 -3 -3 -3 -3 -3 -3 -3 -4 -4 -4 -4 -4 -4 -3 -3 -3 -3 -3 -3 -2 -2
-2 -2 -2 -2 -2 -2 -2 -2 -2 -2 -2 -2 -2 -2 -2 -3 -3 -3 -3 -3 -3 -3 -4 -4 -4 -4 -4 -4 -4 -4 -3 -3 -3 -3 -3 -3 -3 -3
-2 -2 -2 -2 -2 -2 -2 -2 -2 -2 -2 -2 -2 -3 -3 -3 -3 -3 -3 -3 -3 -4 -4 -4 -4 -4 -4 -4 -4 -4 -4 -3 -3 -3 -2 -3 -3 -3
Wind_Speed
3 4 3 3 2 3 2 2 2 4 5 4 3 3 3 4 6 5 6 8 9 9 9 10 10 11 11 11 12 13 14 14 14 14 15 16 15 16
2 3 3 3 2 2 2 3 3 3 4 3 3 4 5 5 7 6 5 8 9 9 10 10 10 10 10 10 11 11 13 13 13 14 15 15 15 15
2 3 3 3 2 2 2 2 2 2 4 5 3 4 4 4 5 5 5 5 6 9 10 10 10 9 10 10 11 11 13 13 13 14 14 14 14 15
2 2 3 2 2 2 1 2 2 1 2 4 5 4 4 5 4 4 5 5 6 9 10 10 10 10 10 11 11 11 11 12 13 13 12 12 13 13
2 2 2 2 2 2 2 2 1 1 1 2 4 4 4 4 5 5 5 4 6 8 9 10 11 11 12 13 12 11 11 12 12 12 12 12 12 12
1 2 2 2 2 2 2 1 1 1 1 1 2 3 3 4 4 4 5 4 5 7 8 9 11 12 13 13 13 12 12 12 13 13 12 12 11 11
1 1 1 1 2 1 1 1 0 1 1 1 2 3 3 4 4 3 4 5 5 4 5 6 7 7 9 12 13 13 13 13 13 13 13 12 11 10
1 2 1 1 2 2 2 2 1 1 1 2 2 3 3 3 3 4 4 4 4 4 5 6 5 5 6 8 13 14 14 14 13 13 13 12 11 10
1 1 2 2 2 1 2 3 3 4 3 1 2 3 3 3 3 4 4 3 3 5 5 5 4 5 6 9 14 15 15 15 15 14 14 13 12 11
0 0 0 1 1 2 2 3 3 4 4 3 1 2 2 2 2 2 3 3 2 3 3 3 5 5 6 7 12 14 15 16 15 15 14 14 13 12
1 1 1 1 2 3 3 3 4 4 6 7 6 6 6 6 5 3 3 3 4 3 3 2 4 5 5 5 9 13 15 16 15 15 14 14 13 11
1 1 2 2 3 3 3 2 2 3 3 5 6 7 7 7 8 4 2 2 3 3 3 3 3 4 4 3 5 8 10 13 15 14 15 15 14 9
1 1 1 3 3 4 4 3 3 3 3 3 4 4 4 4 5 4 3 2 2 2 3 3 3 3 3 5 5 5 6 7 9 10 12 14 14 10
1 1 1 3 5 6 5 5 5 5 3 3 3 3 3 3 4 4 5 4 2 2 4 3 2 3 3 4 5 5 5 6 6 6 8 12 12 12
2 4 4 5 5 5 7 7 5 4 3 3 3 2 2 2 3 3 4 4 4 5 5 4 2 2 2 3 4 5 5 5 5 6 7 6 6 6
3 4 6 7 6 6 6 5 4 3 2 2 1 2 2 2 3 3 3 3 3 4 5 5 4 2 2 3 3 4 4 4 6 7 6 5 6 6
4 3 4 4 4 4 3 3 3 3 3 2 2 2 2 3 3 3 3 3 3 4 5 5 5 4 2 2 3 4 4 4 5 6 6 6 5 5
5 4 3 3 2 2 2 2 2 2 2 2 2 2 2 2 3 3 3 2 3 3 4 5 5 5 3 2 2 3 4 4 5 6 4 5 6 6
5 3 2 2 1 1 1 1 2 2 2 2 2 2 2 2 2 2 3 2 3 3 4 4 4 4 5 5 4 3 3 5 5 5 4 3 5 7
3 2 1 1 1 1 1 1 1 2 2 2 2 2 2 2 2 2 2 2 3 4 4 4 4 3 3 4 4 5 6 4 4 5 5 4 4 7
2 2 1 1 1 1 1 1 1 1 1 1 1 2 2 1 2 2 2 3 3 3 4 4 5 7 3 2 3 4 5 7 6 5 5 5 5 5
1 1 1 1 1 1 1 1 1 1 1 1 1 2 1 1 1 2 2 2 2 3 3 4 5 4 2 2 4 5 6 7 8 8 6 4 3 3
1 1 1 1 1 1 1 1 1 1 1 2 2 2 1 1 2 2 2 2 2 3 3 4 4 3 2 3 3 4 6 7 6 6 5 8 8 7
Wind_Direction
247 245 249 251 247 249 246 240 246 295 307 312 323 324 329 329 328 338 326 322 323 327 327 321 317 317 310 304 299 298 300 297 293 292 289 288 287 286
252 251 254 259 255 253 246 248 236 242 283 306 309 315 321 326 332 338 329 332 333 329 329 330 331 326 323 317 310 309 309 308 301 295 291 288 288 288
275 260 262 261 253 260 254 252 248 230 270 303 314 322 327 327 327 336 336 335 337 335 335 334 334 335 338 330 323 317 313 313 312 306 299 292 289 286
271 272 272 272 262 260 249 253 255 247 250 288 309 320 321 319 323 333 338 343 345 338 340 341 343 343 344 338 328 322 320 319 318 315 310 303 296 291
261 262 267 258 266 273 264 262 264 281 265 263 298 314 317 326 331 333 338 343 347 345 346 348 349 347 345 344 339 332 329 327 325 321 315 309 303 296
271 257 253 241 244 250 258 260 262 287 294 281 306 316 322 325 333 334 337 344 343 347 352 353 354 353 349 346 349 349 344 337 333 330 328 324 318 310
325 298 279 287 294 294 293 275 257 267 285 288 305 319 324 330 329 325 324 330 339 346 341 351 351 352 349 347 350 353 351 345 340 337 334 331 328 324
328 332 330 331 339 341 352 358 5 327 288 297 303 308 310 313 320 325 328 338 338 346 348 338 349 344 346 346 354 357 356 355 351 346 344 342 337 331
321 340 346 350 358 10 21 22 13 1 343 305 301 307 307 309 318 330 333 334 320 328 336 324 338 337 339 344 354 357 358 358 356 353 353 353 354 351
312 320 3 5 11 53 66 39 19 14 6 8 350 324 328 332 324 312 316 327 318 335 345 327 332 331 334 336 347 354 357 359 359 359 359 358 354 351
359 42 52 51 31 57 72 58 35 21 23 33 33 31 26 18 15 15 4 360 336 332 353 344 328 325 323 331 341 350 353 357 359 359 359 358 356 353
27 24 27 37 49 56 74 81 58 15 24 25 27 25 27 21 17 18 358 347 330 325 341 345 326 334 329 324 334 342 346 350 354 357 357 355 354 354
39 14 18 43 58 55 57 76 81 60 50 42 32 26 21 18 15 14 7 349 331 304 317 332 322 331 322 315 320 332 347 345 348 350 351 353 355 356
70 42 42 54 59 59 61 64 63 58 59 52 42 27 17 8 1 5 8 6 353 312 311 319 317 325 326 321 318 326 335 340 346 346 344 348 353 354
80 69 65 64 62 63 60 58 54 57 58 51 33 11 357 349 354 357 2 7 8 1 353 348 341 331 324 311 314 320 325 330 343 345 344 342 338 340
73 70 65 64 62 56 52 45 40 48 54 51 20 359 357 2 6 1 359 354 2 356 354 354 345 335 321 304 301 309 316 318 332 334 331 328 331 337
86 75 63 54 49 43 41 35 29 30 31 22 24 14 7 5 1 359 5 7 8 347 340 340 336 321 290 299 311 314 318 318 319 327 332 335 332 337
88 83 71 61 51 42 34 23 23 25 18 15 16 9 0 355 353 357 5 9 358 342 334 331 338 342 343 331 291 305 319 316 322 327 327 334 333 335
77 79 78 68 45 32 25 25 14 3 7 14 6 354 348 345 347 349 354 357 349 340 334 335 345 352 355 344 329 319 314 320 325 327 328 323 314 315
52 60 56 53 37 16 8 8 8 5 4 354 344 338 336 337 336 336 345 346 342 339 340 341 344 342 330 311 308 314 318 309 318 320 320 314 301 302
34 29 26 18 8 352 347 354 3 354 342 332 325 326 327 333 334 332 336 341 344 340 334 327 313 320 309 313 318 318 319 325 320 307 312 323 328 338
14 358 353 349 337 327 335 345 346 333 325 319 314 317 317 317 317 324 329 330 329 322 316 316 323 337 350 337 324 319 325 331 335 334 327 308 308 330
338 334 332 329 325 318 312 298 291 292 291 291 297 303 304 306 304 305 310 313 318 322 326 327 333 341 333 319 321 324 327 331 337 346 341 337 329 307
Height
1463 1462 1461 1461 1460 1460 1459 1458 1456 1452 1448 1447 1447 1445 1445 1443 1441 1439 1437 1435 1432 1430 1428 1425 1422 1420 1418 1415 1414 1414 1413 1412 1410 1409 1408 1407 1405 1405
1460 1459 1458 1458 1457 1456 1456 1455 1454 1452 1448 1445 1445 1444 1442 1440 1439 1437 1435 1432 1429 1426 1424 1421 1418 1416 1413 1411 1410 1409 1408 1406 1405 1403 1402 1400 1400 1399
1456 1456 1455 1455 1454 1453 1452 1452 1451 1449 1446 1444 1443 1442 1440 1438 1436 1434 1432 1429 1426 1423 1420 1418 1415 1412 1410 1408 1406 1404 1403 1401 1399 1397 1396 1395 1394 1394
1453 1453 1452 1452 1451 1450 1449 1448 1448 1447 1445 1442 1441 1439 1438 1436 1434 1431 1429 1426 1423 1420 1418 1415 1412 1410 1407 1405 1403 1400 1399 1396 1394 1393 1391 1390 1389 1388
1451 1450 1449 1449 1448 1447 1447 1446 1445 1444 1443 1441 1439 1437 1436 1434 1431 1429 1427 1424 1421 1418 1416 1413 1410 1408 1405 1402 1399 1396 1395 1393 1391 1389 1387 1386 1385 1383
1448 1448 1447 1446 1445 1445 1444 1444 1443 1442 1441 1439 1437 1436 1434 1432 1430 1427 1424 1422 1419 1416 1414 1412 1409 1406 1403 1399 1397 1394 1391 1389 1387 1385 1383 1382 1380 1379
1446 1445 1445 1444 1444 1443 1442 1442 1441 1440 1439 1437 1435 1434 1432 1430 1428 1426 1423 1420 1418 1415 1412 1410 1407 1404 1401 1398 1395 1392 1389 1387 1384 1382 1380 1378 1376 1375
1443 1443 1443 1442 1442 1441 1441 1440 1440 1438 1437 1435 1434 1432 1431 1429 1427 1425 1422 1419 1416 1415 1412 1409 1406 1403 1400 1397 1394 1391 1388 1385 1383 1380 1378 1375 1374 1372
1442 1441 1440 1440 1440 1439 1439 1439 1438 1437 1436 1435 1433 1432 1430 1429 1427 1424 1422 1420 1417 1414 1412 1408 1406 1402 1399 1396 1394 1391 1387 1384 1381 1378 1376 1373 1372 1370
1440 1440 1439 1439 1438 1438 1437 1437 1436 1435 1434 1434 1432 1431 1429 1428 1426 1424 1422 1419 1416 1414 1412 1408 1404 1402 1399 1396 1393 1390 1387 1384 1380 1377 1374 1372 1370 1369
1439 1438 1438 1438 1437 1437 1436 1435 1434 1434 1433 1432 1431 1430 1428 1427 1425 1423 1421 1418 1415 1413 1411 1408 1404 1401 1399 1396 1393 1390 1387 1384 1381 1377 1375 1372 1370 1368
1437 1437 1437 1437 1436 1436 1435 1434 1433 1433 1432 1431 1430 1429 1427 1426 1425 1423 1421 1419 1415 1413 1411 1408 1405 1402 1398 1396 1394 1391 1387 1384 1381 1378 1375 1372 1370 1367
1436 1436 1436 1436 1436 1435 1435 1434 1433 1433 1431 1430 1429 1428 1427 1426 1425 1423 1421 1419 1416 1413 1412 1409 1405 1402 1400 1396 1393 1391 1387 1384 1381 1378 1375 1373 1370 1367
1435 1435 1435 1435 1435 1434 1434 1433 1433 1432 1431 1430 1429 1428 1427 1426 1424 1423 1421 1419 1416 1414 1412 1409 1406 1403 1400 1396 1393 1390 1388 1385 1381 1378 1375 1373 1370 1367
1435 1435 1435 1435 1434 1434 1433 1433 1433 1432 1431 1430 1429 1428 1427 1426 1424 1422 1420 1418 1416 1414 1412 1409 1406 1403 1401 1397 1394 1391 1387 1385 1382 1379 1376 1372 1369 1367
1434 1434 1434 1434 1434 1434 1433 1433 1432 1432 1431 1430 1429 1428 1427 1425 1424 1422 1420 1418 1415 1413 1412 1409 1406 1404 1400 1398 1395 1391 1389 1386 1382 1379 1376 1373 1370 1367
1433 1433 1433 1433 1433 1433 1433 1433 1432 1432 1431 1430 1429 1428 1426 1425 1423 1422 1420 1417 1415 1413 1411 1409 1407 1404 1401 1398 1395 1392 1389 1386 1383 1379 1376 1372 1370 1367
1433 1432 1433 1433 1433 1433 1433 1432 1432 1431 1431 1430 1429 1428 1426 1425 1423 1421 1420 1417 1415 1413 1411 1409 1406 1403 1401 1397 1396 1392 1389 1386 1383 1380 1376 1372 1369 1367
1432 1432 1432 1432 1432 1433 1432 1432 1431 1431 1431 1430 1429 1427 1426 1424 1423 1421 1419 1417 1415 1413 1411 1409 1406 1403 1400 1397 1395 1393 1390 1386 1383 1380 1376 1373 1370 1367
1431 1431 1431 1432 1432 1432 1432 1431 1431 1430 1430 1429 1428 1427 1425 1424 1422 1421 1419 1417 1415 1413 1411 1409 1407 1404 1402 1399 1395 1393 1391 1387 1383 1379 1376 1374 1371 1369
1431 1431 1431 1431 1431 1431 1431 1431 1430 1429 1429 1428 1427 1426 1425 1423 1422 1420 1419 1417 1415 1413 1411 1409 1407 1406 1403 1400 1396 1393 1390 1388 1384 1381 1377 1374 1371 1368
1431 1430 1430 1430 1430 1430 1430 1429 1429 1428 1428 1427 1426 1425 1424 1422 1421 1420 1418 1416 1415 1413 1411 1409 1407 1405 1403 1400 1396 1393 1390 1387 1385 1382 1379 1376 1373 1369
1429 1429 1429 1429 1429 1428 1428 1428 1427 1427 1426 1425 1424 1423 1422 1421 1420 1419 1417 1416 1414 1413 1411 1409 1407 1405 1403 1400 1397 1394 1391 1388 1385 1382 1380 1378 1375 1373